Tracking 20719 objects as of 25-May-2020
HD Live streaming from Space Station
objects crossing your sky now

IRIDIUM 33 DEB

Track IRIDIUM 33 DEB now!
10-day predictions


NORAD ID: 33867
Int'l Code: 1997-051AL
Perigee: 689.4 km
Apogee: 731.3 km
Inclination: 86.4 °
Period: 98.8 minutes
Semi major axis: 7081 km
RCS: 0.1307 m2 (medium)
Launch date: September 14, 1997
Source: United States (US)
Launch site: TYURATAM MISSILE AND SPACE COMPLEX (TTMTR)

Note: This is SATELLITE DEBRIS
aabbcc
Your satellite tracking list
Your tracking list is empty




NASA's NSSDC Master Catalog

Two Line Element Set (TLE):
1 33867U 97051AL  20145.70594042  .00000925  00000-0  20021-3 0  9996
2 33867  86.4188 167.8811 0029618 176.7276 183.4132 14.56889504596842
Source of the keplerian elements: AFSPC